Regional Weather Roundup
Issued by NWS

Home | Current Version | Previous Version | Graphics & Text | Print | Product List | Glossary On
Versions: 1 2 3 4 5 6 7 8 9 10 11 12 13 14 15 16 17 18 19 20 21 22 23 24 25 26 27 28 29 30 31 32 33 34 35 36 37 38 39 40 41 42 43 44 45 46 47 48 49 50
716
ASUS45 KSLC 301810
RWRUT

UTAH REGIONAL WEATHER ROUNDUP
NATIONAL WEATHER SERVICE SALT LAKE CITY UT
1200 PM MDT SAT JUL 30 2016

UTZ001>011-023>025-301900-

NORTHERN UTAH

CITY           SKY/WX    TMP DP  RH WIND       PRES   REMARKS
BRIGHAM CITY     N/A     86  34  15 CALM      29.98F
HILL AFB       MOSUNNY   91  44  20 S7        30.02R
LOGAN          PTSUNNY   81  47  30 S7        29.99F
OGDEN          MOSUNNY   93  42  17 SW9       29.98S
PROVO AIRPORT  MOSUNNY   91  46  21 E8        30.01F
SALT LAKE CITY PTSUNNY   96  44  16 S18G26    29.95F HX  92
VERNAL         MOSUNNY   85  37  18 E3        30.08F
WENDOVER       CLOUDY    84  46  26 CALM      30.00R
HEBER CITY     MOSUNNY   86  41  20 CALM      30.08F

$$

UTZ012>022-026-027-301900-

SOUTHERN/CENTRAL UTAH

CITY           SKY/WX    TMP DP  RH WIND       PRES   REMARKS
BLANDING       MOSUNNY   84  43  23 E5        30.23S
BRYCE CANYON   PTSUNNY   81  41  24 NW8       30.30R
CEDAR CITY     SUNNY     88  51  28 SW16      30.14S
DELTA          SUNNY     90  39  17 S12G20    30.04S
MILFORD        SUNNY     91  50  24 S24G32    30.06S
MOAB/CYNLANDS  CLOUDY    91  42  18 E14       30.01F
PRICE          PTSUNNY   78  41  26 E13G24    30.16S
ST GEORGE      PTCLDY    91  55  29 W8        29.99S

$$

REGIONAL REPORTS     COLORADO/ARIZONA

CITY           SKY/WX    TMP DP  RH WIND       PRES   REMARKS
CRAIG, CO      SUNNY     86  38  18 CALM      30.14F
GRAND JUNCTION SUNNY     90  41  18 W13       30.06S
RIFLE          SUNNY     86  39  19 CALM      30.10F
MONTROSE       CLOUDY    84  41  21 NW8       30.16F
CORTEZ         SUNNY     86  44  23 VRB5      30.15F
PAGE, AZ       PTSUNNY   92  47  21 NW9G18    30.02F
GRAND CANYON   MOSUNNY   85  46  25 MISG      30.25F
KINGMAN        PTSUNNY   84  59  42 SW8       30.04S
FLAGSTAFF      SUNNY     81  46  29 W13       30.26R

$$

REGIONAL REPORTS    NEVADA/IDAHO/WYOMING

CITY           SKY/WX    TMP DP  RH WIND       PRES   REMARKS
LAS VEGAS, NV  MOSUNNY   98  56  24 S10       29.84F HAZE    HX  96
ELY            PTSUNNY   84  44  24 SW16G23   30.17S
ELKO           MOSUNNY   89  41  18 SW6       30.04S
POCATELLO, ID  PTSUNNY   87  43  21 SW16G22   29.98S
BURLEY         CLOUDY    77  57  50 NE5       29.92F
EVANSTON, WY   SUNNY     85  35  16 SW13      30.19S
ROCK SPRINGS   SUNNY     85  30  13 W9        30.16F
KEMMERER         N/A     82  30  15 W14       30.20S

$$




USA.gov is the U.S. government's official web portal to all federal, state and local government web resources and services.